Date String (YYYY-MM-DD hh:mm:ss) UTC,Instrument flags,Ambient pressure (hPa),Sample flow (lpm),Bypass flow (lpm),Sample temperature (°C),Ambient temperature (°C),ASC tube jacket temperature (°C),LED temperature (°C),Box temperature (°C),Sample RH (%),Span deviation,Mass concentration (μg/m³),Mass concentration (μg/m³),Mass concentration (μg/m³)
DateTimeUTC,F1_M11,P_M11,Q1_M11,Q2_M11,T1_M11,T2_M11,T3_M11,T4_M11,T5_M11,U1_M11,ZSPAN_M11,X0_M11,X2_M11,X1_M11
2022-04-25 14:00:00,,0833.7,5.01,0.00,22.6,21.8,00.0,31.5,24.4,12.8,0000.0,0008.39,0003.14,0002.10
2022-04-25 14:01:00,,0833.7,4.98,0.00,22.6,21.8,00.0,31.5,24.5,12.9,0000.0,0008.45,0003.12,0002.11
2022-04-25 14:02:00,,0833.7,5.01,0.00,22.7,21.8,00.0,31.5,24.5,12.9,0000.0,0008.46,0003.08,0002.13
2022-04-25 14:03:00,,0833.7,5.01,0.00,22.7,21.8,00.0,31.5,24.5,12.9,0000.0,0008.52,0003.09,0002.14
2022-04-25 14:04:00,,0833.7,4.98,0.00,22.7,21.8,00.0,31.5,24.5,13.0,0000.0,0008.15,0003.08,0002.14
2022-04-25 14:05:00,,0833.7,5.01,0.00,22.7,21.8,00.0,31.5,24.5,13.0,0000.0,0007.49,0003.04,0002.15
2022-04-25 14:06:00,,0833.7,5.00,0.00,22.7,21.8,00.0,31.5,24.5,13.0,0000.0,0007.26,0003.02,0002.17
2022-04-25 14:07:00,,0833.7,4.99,0.00,22.7,21.8,00.0,31.5,24.4,13.1,0000.0,0007.07,0002.99,0002.19
2022-04-25 14:08:00,,0833.7,5.00,0.00,22.6,21.8,00.0,31.5,24.5,13.1,0000.0,0006.64,0003.04,0002.20
2022-04-25 14:09:00,,0833.8,5.00,0.00,22.7,21.8,00.0,31.5,24.5,13.2,0000.0,0005.98,0003.07,0002.20
2022-04-25 14:10:00,,0833.7,5.00,0.00,22.7,21.8,00.0,31.5,24.5,13.1,0000.0,0005.93,0003.07,0002.21
2022-04-25 14:11:00,,0833.7,5.01,0.00,22.7,21.8,00.0,31.5,24.5,13.1,0000.0,0005.41,0003.09,0002.22
2022-04-25 14:12:00,,0833.7,4.98,0.00,22.7,21.8,00.0,31.5,24.4,13.2,0000.0,0005.57,0003.17,0002.23
2022-04-25 14:13:00,,0833.8,5.00,0.00,22.7,21.8,00.0,31.5,24.4,13.1,0000.0,0005.85,0003.21,0002.25
2022-04-25 14:14:00,,0833.7,5.00,0.00,22.7,21.8,00.0,31.5,24.4,13.0,0000.0,0006.42,0003.22,0002.25
2022-04-25 14:15:00,,0833.8,5.00,0.00,22.6,21.8,00.0,31.5,24.4,13.3,0000.0,0007.53,0003.25,0002.26
2022-04-25 14:16:00,,0833.8,5.00,0.00,22.6,21.8,00.0,31.5,24.4,13.3,0000.0,0007.55,0003.27,0002.27
2022-04-25 14:17:00,,0833.8,4.99,0.00,22.6,21.8,00.0,31.5,24.4,13.1,0000.0,0008.26,0003.31,0002.29
2022-04-25 14:18:00,,0833.8,5.00,0.00,22.6,21.8,00.0,31.5,24.4,13.2,0000.0,0008.38,0003.33,0002.30
2022-04-25 14:19:00,,0833.8,5.00,0.00,22.6,21.8,00.0,31.5,24.4,13.2,0000.0,0008.33,0003.29,0002.30
2022-04-25 14:20:00,,0833.8,5.01,0.00,22.6,21.8,00.0,31.5,24.4,13.2,0000.0,0008.27,0003.28,0002.33
2022-04-25 14:21:00,,0833.8,5.00,0.00,22.6,21.8,00.0,31.5,24.4,13.0,0000.0,0008.42,0003.28,0002.35
2022-04-25 14:22:00,,0833.8,5.00,0.00,22.6,21.8,00.0,31.5,24.4,13.0,0000.0,0008.36,0003.26,0002.38
2022-04-25 14:23:00,,0833.8,5.00,0.00,22.6,21.8,00.0,31.5,24.4,12.6,0000.0,0008.23,0003.20,0002.41
2022-04-25 14:24:00,,0833.8,4.99,0.00,22.6,21.8,00.0,31.5,24.4,12.9,0000.0,0008.12,0003.20,0002.43
2022-04-25 14:25:00,,0833.8,5.00,0.00,22.6,21.8,00.0,31.5,24.3,13.0,0000.0,0007.92,0003.21,0002.46
2022-04-25 14:26:00,,0833.8,5.00,0.00,22.6,21.8,00.0,31.5,24.3,12.9,0000.0,0007.16,0003.20,0002.48
2022-04-25 14:27:00,,0833.8,5.00,0.00,22.6,21.8,00.0,31.5,24.3,12.7,0000.0,0007.12,0003.19,0002.49
2022-04-25 14:28:00,,0833.9,5.00,0.00,22.6,21.8,00.0,31.5,24.4,12.6,0000.0,0006.23,0003.20,0002.49
2022-04-25 14:29:00,,0833.8,4.98,0.00,22.6,21.8,00.0,31.5,24.4,12.8,0000.0,0005.86,0003.21,0002.52
2022-04-25 14:30:00,,0833.9,5.01,0.00,22.6,21.8,00.0,31.5,24.4,13.0,0000.0,0005.99,0003.23,0002.54
2022-04-25 14:31:00,,0833.8,5.01,0.00,22.6,21.8,00.0,31.5,24.4,13.1,0000.0,0006.08,0003.25,0002.55
2022-04-25 14:32:00,,0833.9,4.98,0.00,22.6,21.8,00.0,31.5,24.4,13.2,0000.0,0005.96,0003.25,0002.55
2022-04-25 14:33:00,,0833.8,5.01,0.00,22.6,21.8,00.0,31.5,24.4,13.1,0000.0,0006.10,0003.30,0002.54
2022-04-25 14:34:00,,0833.8,5.01,0.00,22.6,21.8,00.0,31.5,24.4,12.7,0000.0,0006.04,0003.30,0002.54
2022-04-25 14:35:00,,0833.8,5.00,0.00,22.6,21.8,00.0,31.5,24.3,12.7,0000.0,0006.07,0003.31,0002.53
2022-04-25 14:36:00,,0833.8,5.00,0.00,22.5,21.7,00.0,31.5,24.3,12.8,0000.0,0006.22,0003.32,0002.52
2022-04-25 14:37:00,,0833.8,5.00,0.00,22.5,21.7,00.0,31.5,24.3,12.9,0000.0,0005.95,0003.32,0002.52
2022-04-25 14:38:00,,0833.9,5.01,0.00,22.5,21.7,00.0,31.5,24.3,13.0,0000.0,0005.87,0003.31,0002.51
2022-04-25 14:39:00,,0833.8,4.98,0.00,22.5,21.7,00.0,31.5,24.2,13.0,0000.0,0005.95,0003.32,0002.52
2022-04-25 14:40:00,,0833.8,5.00,0.00,22.5,21.7,00.0,31.5,24.2,12.8,0000.0,0006.17,0003.31,0002.51
2022-04-25 14:41:00,,0833.8,5.01,0.00,22.5,21.7,00.0,31.5,24.3,12.9,0000.0,0006.32,0003.34,0002.51
2022-04-25 14:42:00,,0833.8,5.00,0.00,22.5,21.7,00.0,31.5,24.2,12.9,0000.0,0006.38,0003.35,0002.52
2022-04-25 14:43:00,,0833.8,4.98,0.00,22.5,21.7,00.0,31.5,24.3,13.1,0000.0,0007.04,0003.37,0002.51
2022-04-25 14:44:00,,0833.7,5.00,0.00,22.5,21.7,00.0,31.4,24.2,13.1,0000.0,0007.92,0003.38,0002.52
2022-04-25 14:45:00,,0833.7,5.01,0.00,22.4,21.7,00.0,31.4,24.2,13.1,0000.0,0008.69,0003.38,0002.53
2022-04-25 14:46:00,,0833.7,4.99,0.00,22.4,21.6,00.0,31.4,24.2,13.0,0000.0,0008.70,0003.39,0002.54
2022-04-25 14:47:00,,0833.7,5.01,0.00,22.4,21.6,00.0,31.4,24.2,13.0,0000.0,0008.66,0003.41,0002.56
2022-04-25 14:48:00,,0833.7,4.99,0.00,22.4,21.6,00.0,31.4,24.2,12.8,0000.0,0008.74,0003.42,0002.56
2022-04-25 14:49:00,,0833.7,5.01,0.00,22.4,21.7,00.0,31.4,24.2,12.8,0000.0,0008.78,0003.43,0002.56
2022-04-25 14:50:00,,0833.7,5.01,0.00,22.4,21.7,00.0,31.4,24.2,12.9,0000.0,0009.09,0003.44,0002.56
2022-04-25 14:51:00,,0833.7,5.00,0.00,22.4,21.7,00.0,31.4,24.1,13.0,0000.0,0009.03,0003.42,0002.57
2022-04-25 14:52:00,,0833.7,4.99,0.00,22.4,21.7,00.0,31.4,24.2,13.1,0000.0,0009.09,0003.42,0002.58
2022-04-25 14:53:00,,0833.7,5.00,0.00,22.4,21.7,00.0,31.4,24.2,13.1,0000.0,0009.14,0003.43,0002.58
2022-04-25 14:54:00,,0833.7,4.99,0.00,22.4,21.7,00.0,31.4,24.2,12.7,0000.0,0008.80,0003.43,0002.61
2022-04-25 14:55:00,,0833.7,5.01,0.00,22.4,21.6,00.0,31.4,24.1,12.5,0000.0,0007.97,0003.40,0002.61
2022-04-25 14:56:00,,0833.7,5.02,0.00,22.4,21.6,00.0,31.4,24.1,12.6,0000.0,0007.11,0003.41,0002.61
2022-04-25 14:57:00,,0833.7,5.00,0.00,22.3,21.6,00.0,31.3,24.0,11.8,0000.0,0006.96,0003.40,0002.60
2022-04-25 14:58:00,,0833.7,5.01,0.00,22.3,21.6,00.0,31.3,24.1,11.5,0000.0,0007.05,0003.39,0002.57
2022-04-25 14:59:00,,0833.7,4.98,0.00,22.3,21.6,00.0,31.3,24.1,11.7,0000.0,0006.98,0003.37,0002.53
